Location: Newark
(7.0858°N, 171.3717°E)
Time: 18:17:52
(UTC+00:00)

A-11 Canister half - Pass Details

Date: 31 July 2021
Orbit: 1526 x 1683 km, 47.3° (Epoch: 15 September)

Event Time Altitude Azimuth Distance (km) Brightness Sun altitude
Rises 07:04:57 0° 335° (NNW) 4,792 12.3 -3.4°
Reaches altitude 10° 07:08:37 10° 346° (NNW) 3,783 11.6 -4.3°
Maximum altitude 07:16:46 31° 45° (NE) 2,455 9.9 -6.2°
Drops below altitude 10° 07:24:43 10° 104° (ESE) 3,701 10.3 -8.1°
Enters shadow 07:25:03 - 105° (ESE) 3,788 10.4 -8.2°
